| time (UTC) | temp F | wind direction | speed MPH | gust MPH | rain 1hr in | rain 24hr in | rain mn in | humidity % | barometer mb |
| 20260505204458 | 79 | 279 | 7.0 | 16.0 | 0.00 | 0.07 | 0.07 | 37 | 1007.7 |
| 20260505202957 | 78 | 271 | 8.0 | 20.0 | 0.00 | 0.07 | 0.07 | 35 | 1007.8 |
| 20260505200000 | 79 | 276 | 7.0 | 14.0 | 0.00 | 0.07 | 0.07 | 34 | 1007.9 |
| 20260505192958 | 79 | 343 | 9.0 | 21.0 | 0.00 | 0.07 | 0.07 | 32 | 1007.8 |
| 20260505184457 | 79 | 359 | 6.0 | 19.0 | 0.00 | 0.07 | 0.07 | 37 | 1008.3 |
| 20260505181457 | 79 | 333 | 6.0 | 19.0 | 0.00 | 0.07 | 0.07 | 38 | 1008.6 |
| 20260505174457 | 79 | 13 | 5.0 | 12.0 | 0.00 | 0.07 | 0.07 | 44 | 1009.0 |
| 20260505172957 | 79 | 297 | 5.0 | 15.0 | 0.00 | 0.07 | 0.07 | 44 | 1009.0 |
| 20260505171458 | 78 | 25 | 7.0 | 13.0 | 0.00 | 0.07 | 0.07 | 46 | 1009.2 |
| 20260505170000 | 78 | 297 | 3.0 | 8.0 | 0.00 | 0.07 | 0.07 | 45 | 1009.4 |
| 20260505164457 | 78 | 352 | 4.0 | 14.0 | 0.00 | 0.07 | 0.07 | 50 | 1009.7 |
| 20260505162957 | 77 | 323 | 6.0 | 14.0 | 0.00 | 0.07 | 0.07 | 47 | 1009.9 |
| 20260505161457 | 76 | 323 | 5.0 | 13.0 | 0.00 | 0.07 | 0.07 | 46 | 1009.8 |
| 20260505152957 | 74 | 253 | 3.0 | 8.0 | 0.00 | 0.07 | 0.07 | 53 | 1010.2 |
| 20260505151458 | 73 | 327 | 4.0 | 10.0 | 0.00 | 0.07 | 0.07 | 53 | 1010.4 |
| 20260505124457 | 60 | 283 | 2.0 | 5.0 | 0.00 | 0.07 | 0.07 | 76 | 1011.0 |
| 20260505122958 | 59 | 359 | 2.0 | 6.0 | 0.00 | 0.07 | 0.07 | 76 | 1011.0 |
| 20260505121457 | 59 | 274 | 1.0 | 4.0 | 0.00 | 0.07 | 0.07 | 78 | 1010.9 |
| 20260505115957 | 59 | 46 | 1.0 | 4.0 | 0.00 | 0.07 | 0.07 | 78 | 1010.8 |
| 20260505114457 | 58 | 65 | 0.0 | 2.0 | 0.00 | 0.07 | 0.07 | 80 | 1010.7 |
| 20260505112956 | 57 | 167 | 0.0 | 3.0 | 0.00 | 0.07 | 0.07 | 84 | 1010.7 |
| 20260505111456 | 55 | 172 | 0.0 | 2.0 | 0.00 | 0.07 | 0.07 | 85 | 1010.9 |
| 20260505101458 | 53 | 360 | 0.0 | 2.0 | 0.06 | 0.07 | 0.07 | 82 | 1010.4 |
| 20260505092956 | 54 | 308 | 2.0 | 3.0 | 0.06 | 0.06 | 0.06 | 84 | 1010.4 |
| 20260505091456 | 55 | 15 | 2.0 | 4.0 | 0.01 | 0.01 | 0.01 | 78 | 1010.5 |
| 20260505084456 | 57 | 16 | 2.0 | 5.0 | 0.00 | 0.00 | 0.00 | 72 | 1010.1 |
| 20260505082956 | 57 | 56 | 1.0 | 3.0 | 0.00 | 0.00 | 0.00 | 68 | 1009.8 |
| 20260505081456 | 57 | 56 | 1.0 | 3.0 | 0.00 | 0.00 | 0.00 | 69 | 1009.8 |
| 20260505075958 | 57 | 338 | 0.0 | 1.0 | 0.00 | 0.00 | 0.00 | 68 | 1009.7 |
| 20260505072956 | 58 | 338 | 1.0 | 3.0 | 0.00 | 0.00 | 0.00 | 66 | 1009.8 |
| 20260505065958 | 58 | 338 | 1.0 | 4.0 | 0.00 | 0.00 | 0.00 | 65 | 1009.9 |
| 20260505064456 | 58 | 328 | 1.0 | 5.0 | 0.00 | 0.00 | 0.00 | 64 | 1009.8 |
| 20260505061456 | 58 | 169 | 1.0 | 4.0 | 0.00 | 0.00 | 0.00 | 64 | 1009.9 |
| 20260505055958 | 58 | 53 | 1.0 | 3.0 | 0.00 | 0.00 | 0.00 | 62 | 1009.9 |
| 20260505052956 | 58 | 34 | 1.0 | 3.0 | 0.00 | 0.00 | 0.00 | 61 | 1010.0 |
| 20260505051456 | 58 | 88 | 2.0 | 4.0 | 0.00 | 0.00 | 0.00 | 61 | 1009.9 |
| 20260505041500 | 59 | 95 | 2.0 | 5.0 | 0.00 | 0.00 | 0.00 | 58 | 1009.8 |
| 20260505040000 | 59 | 93 | 2.0 | 4.0 | 0.00 | 0.00 | 0.00 | 58 | 1009.7 |
| 20260505034459 | 59 | 89 | 2.0 | 5.0 | 0.00 | 0.00 | 0.00 | 58 | 1009.8 |
| 20260505032959 | 59 | 90 | 2.0 | 5.0 | 0.00 | 0.00 | 0.00 | 56 | 1009.9 |
| 20260505031459 | 60 | 59 | 2.0 | 4.0 | 0.00 | 0.00 | 0.00 | 56 | 1010.0 |
| 20260505030001 | 60 | 61 | 2.0 | 4.0 | 0.00 | 0.00 | 0.00 | 55 | 1010.0 |
| 20260505024500 | 61 | 34 | 2.0 | 5.0 | 0.00 | 0.00 | 0.00 | 54 | 1010.1 |
| 20260505022959 | 61 | 66 | 1.0 | 4.0 | 0.00 | 0.00 | 0.00 | 53 | 1010.2 |
| 20260505021459 | 61 | 41 | 1.0 | 3.0 | 0.00 | 0.00 | 0.00 | 53 | 1010.3 |
| 20260505015958 | 61 | 44 | 1.0 | 3.0 | 0.00 | 0.00 | 0.00 | 52 | 1010.3 |
| 20260505014458 | 62 | 44 | 1.0 | 3.0 | 0.00 | 0.00 | 0.00 | 51 | 1010.3 |
| 20260505012959 | 61 | 44 | 1.0 | 3.0 | 0.00 | 0.00 | 0.00 | 51 | 1010.0 |
| 20260505011458 | 61 | 324 | 0.0 | 2.0 | 0.00 | 0.00 | 0.00 | 53 | 1009.9 |
| 20260505004458 | 62 | 324 | 1.0 | 5.0 | 0.00 | 0.00 | 0.00 | 52 | 1009.5 |
| 20260505001458 | 63 | 335 | 1.0 | 3.0 | 0.00 | 0.00 | 0.00 | 50 | 1009.4 |
| 20260504235958 | 64 | 335 | 2.0 | 6.0 | 0.00 | 0.00 | 0.00 | 47 | 1009.3 |
| 20260504234458 | 65 | 25 | 1.0 | 4.0 | 0.00 | 0.00 | 0.00 | 48 | 1009.2 |
| 20260504232959 | 66 | 316 | 3.0 | 9.0 | 0.00 | 0.00 | 0.00 | 45 | 1009.0 |
| 20260504231457 | 67 | 307 | 3.0 | 7.0 | 0.00 | 0.00 | 0.00 | 45 | 1008.9 |
| 20260504224500 | 68 | 304 | 4.0 | 12.0 | 0.00 | 0.00 | 0.00 | 42 | 1008.8 |
| 20260504221459 | 70 | 310 | 3.0 | 10.0 | 0.00 | 0.00 | 0.00 | 41 | 1008.8 |
| 20260504215958 | 71 | 338 | 2.0 | 8.0 | 0.00 | 0.00 | 0.00 | 41 | 1008.8 |
| 20260504214458 | 70 | 298 | 2.0 | 5.0 | 0.00 | 0.00 | 0.00 | 42 | 1008.9 |
| 20260504212958 | 70 | 341 | 5.0 | 13.0 | 0.00 | 0.00 | 0.00 | 41 | 1008.9 |
| 20260504211458 | 71 | 326 | 4.0 | 10.0 | 0.00 | 0.00 | 0.00 | 38 | 1009.0 |
| 20260504210000 | 69 | 275 | 5.0 | 10.0 | 0.00 | 0.00 | 0.00 | 40 | 1009.1 |